Galesburg, IL

2:42 AM CDT on September 27, 2016 (GMT -0500)
Galesburg Municipal

Weather History for KGBG - December, 2013

Change the Weather History Date:

Monday, December 2, 2013

  Actual Average Record
Temperature  
Mean Temperature 38 °F -  
Max Temperature 45 °F 39 °F 66 °F (1962)
Min Temperature 32 °F 24 °F 1 °F (1985)
Degree Days  
Heating Degree Days 26    
Moisture  
Dew Point 34 °F    
Average Humidity 87    
Maximum Humidity 100    
Minimum Humidity 66    
Precipitation  
Precipitation 0.03 in - - ()
Sea Level Pressure  
Sea Level Pressure 29.77 in    
Wind  
Wind Speed 6 mph (ESE)    
Max Wind Speed 13 mph    
Max Gust Speed 17 mph    
Visibility 6 miles    
Events      
Averages and records for this station are not official NWS values.
T = Trace of Precipitation, MM = Missing Value Source: NWS Daily Summary

Daily Weather History Graph

Daily Weather History Graph

Search for Another Location

Airport or City:

Trip Planner

Search our weather history database for the weather conditions in past years. The results will help you decide how hot, cold, wet, or windy it might be!

Date:

Astronomy

Dec. 02, 2013 Rise Set
Actual Time 7:08 AM CST 4:34 PM CST
Civil Twilight 6:37 AM CST 5:04 PM CST
Nautical Twilight 6:03 AM CST 5:38 PM CST
Astronomical Twilight 5:30 AM CST 6:11 PM CST
Moon 6:33 AM CST (12/2) 4:37 PM CST (12/2)
Length of Visible Light 10h 26m
Length of Day
9h 25m
Waning Crescent, 0% of the Moon is Illuminated
Dec 2
Waning Crescent
Dec 2
New
Dec 9
First Quarter
Dec 17
Full
Dec 25
Last Quarter

Hourly Weather History & Observations

Time (CST) Temp. Windchill Dew Point Humidity Pressure Visibility Wind Dir Wind Speed Gust Speed Precip Events Conditions
12:15 AM 34.0 °F 29.8 °F 30.0 °F 85% 29.94 in 10.0 mi ENE 4.6 mph - N/A   Clear
12:35 AM 34.2 °F 31.2 °F 29.8 °F 84% 29.94 in 10.0 mi East 3.5 mph - N/A   Scattered Clouds
12:55 AM 34.3 °F 29.2 °F 30.0 °F 84% 29.93 in 10.0 mi East 5.8 mph - N/A   Scattered Clouds
1:15 AM 34.5 °F 28.6 °F 30.6 °F 85% 29.92 in 7.0 mi East 6.9 mph - N/A   Mostly Cloudy
1:35 AM 34.2 °F 29.0 °F 30.7 °F 87% 29.92 in 7.0 mi East 5.8 mph - N/A   Overcast
1:55 AM 34.2 °F - 31.3 °F 89% 29.92 in 7.0 mi Calm Calm - N/A   Overcast
2:15 AM 34.2 °F 30.0 °F 32.0 °F 92% 29.91 in 7.0 mi East 4.6 mph - N/A   Mostly Cloudy
2:35 AM 34.3 °F 30.2 °F 32.0 °F 91% 29.91 in 7.0 mi East 4.6 mph - N/A   Overcast
2:55 AM 33.8 °F 30.8 °F 32.0 °F 93% 29.91 in 7.0 mi ESE 3.5 mph - N/A   Overcast
3:15 AM 33.3 °F 28.9 °F 32.0 °F 95% 29.90 in 5.0 mi East 4.6 mph - N/A   Overcast
3:35 AM 32.5 °F 29.3 °F 31.6 °F 96% 29.89 in 5.0 mi East 3.5 mph - N/A   Mostly Cloudy
3:55 AM 32.0 °F 27.5 °F 31.1 °F 96% 29.89 in 5.0 mi East 4.6 mph - N/A   Mostly Cloudy
4:15 AM 32.2 °F 27.7 °F 31.6 °F 98% 29.88 in 5.0 mi East 4.6 mph - N/A   Mostly Cloudy
4:35 AM 32.4 °F 26.9 °F 31.8 °F 98% 29.87 in 5.0 mi East 5.8 mph - N/A   Overcast
4:55 AM 32.4 °F 27.9 °F 31.8 °F 98% 29.87 in 5.0 mi ESE 4.6 mph - N/A   Overcast
5:15 AM 32.4 °F 27.9 °F 32.0 °F 99% 29.86 in 5.0 mi ESE 4.6 mph - N/A   Overcast
5:35 AM 32.9 °F 27.5 °F 32.0 °F 96% 29.86 in 5.0 mi East 5.8 mph - N/A   Overcast
5:55 AM 33.1 °F 28.7 °F 32.0 °F 96% 29.86 in 5.0 mi ESE 4.6 mph - N/A   Overcast
6:15 AM 32.9 °F 26.7 °F 32.0 °F 96% 29.85 in 5.0 mi ESE 6.9 mph - N/A   Overcast
6:35 AM 32.9 °F 26.7 °F 32.0 °F 96% 29.85 in 5.0 mi ESE 6.9 mph - N/A   Overcast
6:55 AM 32.9 °F 27.5 °F 32.0 °F 96% 29.85 in 5.0 mi East 5.8 mph - N/A   Overcast
7:15 AM 33.1 °F 27.7 °F 32.0 °F 96% 29.84 in 4.0 mi East 5.8 mph - N/A   Overcast
7:35 AM 33.3 °F 27.1 °F 32.0 °F 95% 29.84 in 4.0 mi East 6.9 mph - N/A   Overcast
7:55 AM 33.6 °F 27.5 °F 32.0 °F 94% 29.84 in 5.0 mi ESE 6.9 mph - N/A   Mostly Cloudy
8:15 AM 34.0 °F 28.0 °F 32.0 °F 92% 29.83 in 5.0 mi East 6.9 mph - N/A   Scattered Clouds
8:35 AM 34.3 °F 28.4 °F 32.0 °F 91% 29.84 in 5.0 mi ESE 6.9 mph - N/A   Clear
8:55 AM 34.7 °F 28.1 °F 32.0 °F 90% 29.83 in 5.0 mi East 8.1 mph - N/A   Mostly Cloudy
9:15 AM 35.6 °F 30.7 °F 32.0 °F 87% 29.83 in 7.0 mi ESE 5.8 mph - N/A   Overcast
9:35 AM 36.3 °F 30.8 °F 32.2 °F 85% 29.83 in 7.0 mi ESE 6.9 mph - N/A   Overcast
9:55 AM 37.8 °F 31.3 °F 32.9 °F 83% 29.82 in 7.0 mi East 9.2 mph - N/A   Mostly Cloudy
10:15 AM 39.2 °F 34.2 °F 33.3 °F 79% 29.81 in 7.0 mi ESE 6.9 mph - N/A   Scattered Clouds
10:35 AM 40.5 °F 34.6 °F 33.8 °F 77% 29.79 in 7.0 mi East 9.2 mph 16.1 mph N/A   Scattered Clouds
10:55 AM 41.9 °F 37.5 °F 34.2 °F 74% 29.79 in 7.0 mi ESE 6.9 mph - N/A   Clear
11:15 AM 41.9 °F 36.9 °F 34.0 °F 73% 29.77 in 10.0 mi ESE 8.1 mph - N/A   Clear
11:35 AM 41.9 °F 36.9 °F 34.2 °F 74% 29.77 in 10.0 mi ESE 8.1 mph - N/A   Clear
11:55 AM 42.8 °F 38.6 °F 34.3 °F 72% 29.77 in 10.0 mi ESE 6.9 mph - N/A   Scattered Clouds
12:15 PM 43.7 °F 38.6 °F 34.7 °F 71% 29.76 in 10.0 mi East 9.2 mph - N/A   Scattered Clouds
12:35 PM 43.7 °F 39.1 °F 34.5 °F 70% 29.76 in 10.0 mi ESE 8.1 mph - N/A   Mostly Cloudy
12:55 PM 45.5 °F 40.3 °F 34.9 °F 66% 29.75 in 10.0 mi ESE 10.4 mph - N/A   Scattered Clouds
1:15 PM 44.6 °F 39.7 °F 34.7 °F 68% 29.74 in 10.0 mi ESE 9.2 mph - N/A   Clear
1:35 PM 44.6 °F 39.7 °F 34.7 °F 68% 29.72 in 10.0 mi ESE 9.2 mph - N/A   Mostly Cloudy
1:55 PM 44.4 °F 40.5 °F 34.7 °F 69% 29.73 in - ESE 6.9 mph - 0.03 in   Overcast
2:15 PM 44.6 °F - 34.9 °F 69% 29.71 in 10.0 mi North - - N/A   Overcast
2:35 PM 44.6 °F 41.4 °F 34.9 °F 69% 29.71 in 10.0 mi ESE 5.8 mph - N/A   Overcast
2:55 PM 44.2 °F 39.2 °F 34.9 °F 70% 29.70 in 10.0 mi East 9.2 mph - N/A   Overcast
3:15 PM 43.2 °F 39.0 °F 35.8 °F 75% 29.70 in 7.0 mi East 6.9 mph - N/A   Overcast
3:35 PM 42.8 °F 38.0 °F 36.0 °F 77% 29.69 in 7.0 mi East 8.1 mph - N/A   Light Drizzle
3:55 PM 42.8 °F 37.5 °F 36.1 °F 77% 29.70 in 7.0 mi East 9.2 mph - N/A   Mostly Cloudy
4:15 PM 42.1 °F 36.1 °F 36.1 °F 79% 29.69 in 7.0 mi ESE 10.4 mph - N/A   Mostly Cloudy
4:35 PM 41.9 °F 36.3 °F 36.5 °F 81% 29.69 in 7.0 mi East 9.2 mph - N/A   Mostly Cloudy
4:55 PM 41.4 °F 35.7 °F 36.7 °F 83% 29.68 in 7.0 mi East 9.2 mph - N/A   Overcast
5:15 PM 41.4 °F 36.2 °F 37.0 °F 85% 29.67 in 7.0 mi ESE 8.1 mph - N/A   Overcast
5:35 PM 41.2 °F 36.6 °F 36.9 °F 85% 29.67 in 7.0 mi East 6.9 mph - N/A   Overcast
5:55 PM 41.2 °F 35.5 °F 36.9 °F 85% 29.67 in 7.0 mi ESE 9.2 mph 17.3 mph N/A   Overcast
6:15 PM 41.2 °F 34.1 °F 37.0 °F 85% 29.66 in 7.0 mi ESE 12.7 mph 17.3 mph N/A   Overcast
6:35 PM 41.0 °F 34.3 °F 36.9 °F 85% 29.65 in 7.0 mi ESE 11.5 mph 17.3 mph N/A   Overcast
6:55 PM 41.2 °F 36.0 °F 37.4 °F 86% 29.67 in 7.0 mi ESE 8.1 mph 17.3 mph N/A   Overcast
7:15 PM 41.2 °F 36.6 °F 37.4 °F 86% 29.68 in 5.0 mi ESE 6.9 mph - N/A   Overcast
7:35 PM 39.7 °F 36.5 °F 36.9 °F 89% 29.69 in 5.0 mi SE 4.6 mph - N/A   Mostly Cloudy
7:55 PM 39.4 °F 35.2 °F 37.0 °F 91% 29.69 in 5.0 mi ESE 5.8 mph - N/A   Mostly Cloudy
8:15 PM 38.5 °F 33.4 °F 36.7 °F 93% 29.68 in 4.0 mi SE 6.9 mph - N/A   Scattered Clouds
8:35 PM 37.6 °F 34.0 °F 36.5 °F 96% 29.68 in 4.0 mi ESE 4.6 mph - N/A   Clear
8:55 PM 37.6 °F 33.1 °F 36.7 °F 97% 29.68 in 3.0 mi ESE 5.8 mph - N/A   Clear
9:15 PM 37.9 °F 32.7 °F 36.9 °F 96% 29.68 in 3.0 mi ESE 6.9 mph - N/A   Clear
9:35 PM 37.8 °F 34.2 °F 37.0 °F 97% 29.68 in 3.0 mi ESE 4.6 mph - N/A   Clear
9:55 PM 37.4 °F 33.8 °F 36.9 °F 98% 29.67 in 2.5 mi ESE 4.6 mph - N/A   Clear
10:15 PM 37.4 °F 33.8 °F 37.0 °F 99% 29.67 in 2.5 mi ESE 4.6 mph - N/A   Clear
10:35 PM 37.4 °F 32.8 °F 37.4 °F 100% 29.67 in 2.0 mi ESE 5.8 mph - N/A   Clear
10:55 PM 37.4 °F 31.4 °F 37.4 °F 100% 29.65 in 2.0 mi ESE 8.1 mph - N/A   Mostly Cloudy
11:15 PM 37.8 °F 34.2 °F 37.8 °F 100% 29.66 in 2.0 mi East 4.6 mph - N/A   Mostly Cloudy
11:35 PM 37.4 °F 33.8 °F 37.4 °F 100% 29.67 in 1.8 mi SE 4.6 mph - N/A   Mist
11:55 PM 37.2 °F 32.6 °F 37.2 °F 100% 29.67 in 1.5 mi SE 5.8 mph - N/A   Mist